Weather History for K05U - June, 2013

Change the Weather History Date:

Thursday, June 20, 2013

  Actual Average Record
Temperature  
Mean Temperature 52 °F -  
Max Temperature 75 °F - - ()
Min Temperature 30 °F - - ()
Degree Days  
Heating Degree Days 12    
Growing Degree Days 2 (Base 50)    
Moisture  
Dew Point 16 °F    
Average Humidity 25    
Maximum Humidity 55    
Minimum Humidity 9    
Precipitation  
Precipitation 0.00 in - - ()
Sea Level Pressure  
Sea Level Pressure 30.04 in    
Wind  
Wind Speed 4 mph (NW)    
Max Wind Speed 14 mph    
Max Gust Speed 25 mph    
Visibility 10 miles    
Events      
T = Trace of Precipitation, MM = Missing Value Source: NWS Daily Summary

Daily Weather History Graph

Daily Weather History Graph

Search for Another Location

Airport or City:

Trip Planner

Search our weather history database for the weather conditions in past years. The results will help you decide how hot, cold, wet, or windy it might be!

Date:

Astronomy

Jun. 20, 2013 Rise Set
Actual Time 5:16 AM PDT 8:14 PM PDT
Civil Twilight 4:43 AM PDT 8:47 PM PDT
Nautical Twilight 4:02 AM PDT 9:28 PM PDT
Astronomical Twilight 3:14 AM PDT 10:16 PM PDT
Moon 5:22 PM PDT (6/20) 2:45 AM PDT (6/20)
Length of Visible Light 16h 03m
Length of Day
14h 58m
Waxing Gibbous, 89% of the Moon is Illuminated
Jun 20
Waxing Gibbous
Jun 23
Full
Jun 29
Last Quarter
Jul 8
New
Jul 15
First Quarter

Hourly Weather History & Observations

Time (PDT) Temp. Windchill Dew Point Humidity Pressure Visibility Wind Dir Wind Speed Gust Speed Precip Events Conditions
12:10 AM 39.2 °F 35.0 °F 14.0 °F 36% 30.08 in 10.0 mi SE 5.8 mph - N/A   Clear
12:30 AM 39.2 °F 35.9 °F 12.2 °F 33% 30.08 in 10.0 mi SE 4.6 mph - N/A   Clear
12:50 AM 37.4 °F 34.9 °F 14.0 °F 38% 30.08 in 10.0 mi ESE 3.5 mph - N/A   Clear
1:10 AM 35.6 °F 32.8 °F 10.4 °F 35% 30.08 in 10.0 mi South 3.5 mph - N/A   Clear
1:30 AM 32.0 °F - 12.2 °F 44% 30.08 in 10.0 mi Calm Calm - N/A   Clear
1:50 AM 32.0 °F 26.4 °F 14.0 °F 48% 30.08 in 10.0 mi SW 5.8 mph - N/A   Clear
2:10 AM 32.0 °F - 15.8 °F 51% 30.08 in 10.0 mi Calm Calm - N/A   Clear
2:30 AM 32.0 °F - 14.0 °F 48% 30.08 in 10.0 mi Calm Calm - N/A   Clear
2:50 AM 32.0 °F - 12.2 °F 44% 30.08 in 10.0 mi Calm Calm - N/A   Clear
3:10 AM 32.0 °F - 12.2 °F 44% 30.08 in 10.0 mi Calm Calm - N/A   Clear
3:30 AM 32.0 °F - 14.0 °F 48% 30.08 in 10.0 mi Calm Calm - N/A   Clear
3:50 AM 32.0 °F - 14.0 °F 48% 30.08 in 10.0 mi Calm Calm - N/A   Clear
4:10 AM 32.0 °F - 14.0 °F 48% 30.08 in 10.0 mi Calm Calm - N/A   Clear
4:30 AM 32.0 °F - 10.4 °F 41% 30.08 in 10.0 mi Calm Calm - N/A   Clear
4:50 AM 30.2 °F - 12.2 °F 47% 30.08 in 10.0 mi Calm Calm - N/A   Clear
5:10 AM 30.2 °F - 14.0 °F 51% 30.09 in 10.0 mi Calm Calm - N/A   Clear
5:30 AM 30.2 °F - 15.8 °F 55% 30.09 in 10.0 mi Calm Calm - N/A   Clear
5:50 AM 32.0 °F - 12.2 °F 44% 30.09 in 10.0 mi Calm Calm - N/A   Clear
6:10 AM 37.4 °F - 15.8 °F 41% 30.10 in 10.0 mi Calm Calm - N/A   Clear
6:30 AM 41.0 °F - 17.6 °F 39% 30.10 in 10.0 mi Calm Calm - N/A   Clear
6:50 AM 44.6 °F - 17.6 °F 34% 30.10 in 10.0 mi Calm Calm - N/A   Clear
7:10 AM 48.2 °F - 19.4 °F 32% 30.10 in 10.0 mi Calm Calm - N/A   Clear
7:30 AM 50.0 °F - 19.4 °F 30% 30.10 in 10.0 mi North 4.6 mph - N/A   Clear
7:50 AM 51.8 °F - 19.4 °F 28% 30.10 in 10.0 mi Calm Calm - N/A   Clear
8:10 AM 53.6 °F - 21.2 °F 28% 30.10 in 10.0 mi North 3.5 mph - N/A   Clear
8:25 AM 53.6 °F - 23.0 °F 30% 30.10 in 10.0 mi NE 4.6 mph - N/A   Clear
8:50 AM 55.4 °F - 23.0 °F 29% 30.10 in 10.0 mi NNW 3.5 mph - N/A   Clear
9:10 AM 57.2 °F - 21.2 °F 25% 30.09 in 10.0 mi North 3.5 mph - N/A   Clear
9:30 AM 59.0 °F - 19.4 °F 22% 30.09 in 10.0 mi East 5.8 mph - N/A   Clear
9:50 AM 59.0 °F - 19.4 °F 22% 30.08 in 10.0 mi Calm Calm - N/A   Clear
10:10 AM 60.8 °F - 21.2 °F 22% 30.07 in 10.0 mi ENE 4.6 mph - N/A   Clear
10:30 AM 62.6 °F - 21.2 °F 20% 30.07 in 10.0 mi North 5.8 mph - N/A   Clear
10:45 AM 64.4 °F - 17.6 °F 16% 30.06 in 10.0 mi Calm Calm - N/A   Clear
11:10 AM 64.4 °F - 19.4 °F 18% 30.06 in 10.0 mi North 8.1 mph - N/A   Clear
11:30 AM 64.4 °F - 17.6 °F 16% 30.06 in 10.0 mi West 5.8 mph - N/A   Clear
11:50 AM 66.2 °F - 19.4 °F 17% 30.05 in 10.0 mi Calm Calm - N/A   Clear
12:10 PM 66.2 °F - 17.6 °F 15% 30.04 in 10.0 mi ENE 3.5 mph - N/A   Clear
12:30 PM 66.2 °F - 19.4 °F 17% 30.04 in 10.0 mi East 6.9 mph - N/A   Clear
12:50 PM 68.0 °F - 17.6 °F 15% 30.03 in 10.0 mi NNE 5.8 mph - N/A   Clear
1:05 PM 66.2 °F - 17.6 °F 15% 30.03 in 10.0 mi South 3.5 mph - N/A   Clear
1:30 PM 69.8 °F - 17.6 °F 14% 30.02 in 10.0 mi NE 8.1 mph - N/A   Clear
1:50 PM 69.8 °F - 17.6 °F 14% 30.01 in 10.0 mi SE 6.9 mph - N/A   Clear
2:10 PM 71.6 °F - 17.6 °F 13% 29.99 in 10.0 mi West 12.7 mph 23.0 mph N/A   Clear
2:30 PM 73.4 °F - 15.8 °F 11% 30.00 in 10.0 mi West 10.4 mph 20.7 mph N/A   Clear
2:50 PM 73.4 °F - 14.0 °F 10% 29.99 in 10.0 mi WNW 3.5 mph 16.1 mph N/A   Clear
3:10 PM 73.4 °F - 14.0 °F 10% 29.98 in 10.0 mi ENE 3.5 mph 20.7 mph N/A   Clear
3:30 PM 73.4 °F - 14.0 °F 10% 29.98 in 10.0 mi West 10.4 mph 20.7 mph N/A   Clear
3:50 PM 75.2 °F - 14.0 °F 10% 29.97 in 10.0 mi West 6.9 mph - N/A   Clear
4:10 PM 75.2 °F - 14.0 °F 10% 29.97 in 10.0 mi WSW 9.2 mph 20.7 mph N/A   Clear
4:30 PM 75.2 °F - 12.2 °F 9% 29.96 in 10.0 mi NW 6.9 mph - N/A   Clear
4:50 PM 75.2 °F - 12.2 °F 9% 29.96 in 10.0 mi West 8.1 mph - N/A   Clear
5:10 PM 75.2 °F - 14.0 °F 10% 29.96 in 10.0 mi WNW 5.8 mph 17.3 mph N/A   Clear
5:30 PM 75.2 °F - 12.2 °F 9% 29.96 in 10.0 mi West 12.7 mph 21.9 mph N/A   Clear
5:50 PM 73.4 °F - 12.2 °F 10% 29.96 in 10.0 mi WNW 10.4 mph 21.9 mph N/A   Clear
6:10 PM 73.4 °F - 12.2 °F 10% 29.96 in 10.0 mi WNW 11.5 mph 16.1 mph N/A   Clear
6:30 PM 73.4 °F - 12.2 °F 10% 29.97 in 10.0 mi West 11.5 mph 18.4 mph N/A   Clear
6:50 PM 71.6 °F - 12.2 °F 10% 29.97 in 10.0 mi West 8.1 mph 16.1 mph N/A   Clear
7:10 PM 69.8 °F - 15.8 °F 13% 29.98 in 10.0 mi WNW 9.2 mph 25.3 mph N/A   Clear
7:30 PM 68.0 °F - 15.8 °F 13% 29.99 in 10.0 mi NW 13.8 mph 19.6 mph N/A   Clear
7:50 PM 66.2 °F - 14.0 °F 13% 30.00 in 10.0 mi NW 10.4 mph 19.6 mph N/A   Clear
8:10 PM 62.6 °F - 14.0 °F 15% 30.00 in 10.0 mi NW 5.8 mph - N/A   Clear
8:30 PM 59.0 °F - 14.0 °F 17% 30.01 in 10.0 mi NNW 9.2 mph - N/A   Clear
8:50 PM 59.0 °F - 15.8 °F 19% 30.02 in 10.0 mi NW 8.1 mph - N/A   Clear
9:10 PM 57.2 °F - 14.0 °F 18% 30.03 in 10.0 mi NW 8.1 mph - N/A   Clear
9:25 PM 55.4 °F - 14.0 °F 20% 30.03 in 10.0 mi NW 3.5 mph - N/A   Clear
9:50 PM 53.6 °F - 14.0 °F 21% 30.05 in 10.0 mi Calm Calm - N/A   Clear
10:10 PM 55.4 °F - 15.8 °F 21% 30.06 in 10.0 mi ENE 3.5 mph - N/A   Clear
10:30 PM 50.0 °F - 15.8 °F 26% 30.06 in 10.0 mi Calm Calm - N/A   Clear
10:50 PM 48.2 °F - 15.8 °F 27% 30.06 in 10.0 mi Calm Calm - N/A   Clear
11:10 PM 44.6 °F 43.1 °F 15.8 °F 31% 30.07 in 10.0 mi SE 3.5 mph - N/A   Clear
11:30 PM 42.8 °F - 14.0 °F 31% 30.06 in 10.0 mi Calm Calm - N/A   Clear
11:50 PM 42.8 °F 41.1 °F 15.8 °F 34% 30.06 in 10.0 mi SSW 3.5 mph - N/A   Clear